Regional Weather Roundup
Issued by NWS

Home | Current Version | Previous Version | Text Only | Print | Product List | Glossary Off
Versions: 1 2 3 4 5 6 7 8 9 10 11 12 13 14 15 16 17 18 19 20 21 22 23 24 25 26 27 28 29 30 31 32 33 34 35 36 37 38 39 40 41 42 43 44 45 46 47 48 49 50

533
ASUS45 KCYS 130110
RWRWY

WYOMING REGIONAL WEATHER ROUNDUP
NATIONAL WEATHER SERVICE CHEYENNE WY
600 PM MST FRI FEB 12 2016

NOTE:  "FAIR" INDICATES FEW OR NO CLOUDS BELOW 12,000 FEET
WITH NO SIGNIFICANT WEATHER AND/OR OBSTRUCTIONS TO VISIBILITY.

WYZ001-130200-
YELLOWSTONE NATIONAL PARK

CITY           SKY/WX    TMP DP  RH WIND       PRES   REMARKS
LK YELLOWSTONE   N/A     35  15  44 CALM      30.29S
W YELLOWSTONE  NOT AVBL

$$
WYZ002>013-054>058-071-098>099-130200-
NORTHERN WYOMING

CITY           SKY/WX    TMP DP  RH WIND       PRES   REMARKS
JACKSON        CLEAR     41  21  45 CALM      30.25S
CODY           FAIR      46  25  42 SE14      30.12R
GREYBULL       FAIR      49  24  37 CALM      30.10F
WORLAND        FAIR      40  29  64 CALM      30.11F
SHERIDAN       PTCLDY    43  30  61 E2        30.10F
BUFFALO        FAIR      41  30  65 S8        30.15F
GILLETTE       MOCLDY    39  29  67 SE8       30.17F WCI  33
HULETT         CLOUDY    32  28  86 CALM      30.21F
NEWCASTLE      MOCLDY    30  28  93 S7        30.25S WCI  23

$$
WYZ014>020-022>026-101>103-130200-
CENTRAL WYOMING

CITY           SKY/WX    TMP DP  RH WIND       PRES   REMARKS
BIG PINEY      FAIR      36  25  64 NW5       30.29R WCI  32
PINEDALE         N/A     34  28  80 NW3       30.29S
DUBOIS         FAIR      43  12  28 NW16      30.20R
LANDER         FAIR      39  28  64 NE8       30.13F WCI  33
RIVERTON       FAIR      41  28  60 N3        30.15S
CASPER         FAIR      40  26  57 SW10      30.17S WCI  33
DOUGLAS        FAIR      38  30  73 SE9       30.21S WCI  31

$$
WYZ021-027>030-104>119-130200-
SOUTHERN WYOMING

CITY           SKY/WX    TMP DP  RH WIND       PRES   REMARKS
EVANSTON       FAIR      44  15  31 SW6       30.30F
KEMMERER       FAIR      36  16  44 CALM      30.31S
FORT BRIDGER   CLEAR     41  21  45 W13       30.33S
ROCK SPRINGS   FAIR      40  21  46 SW13      30.28S WCI  32
DIXON          FAIR      31  24  74 CALM      30.35S
RAWLINS        FAIR      39  24  55 SW14      30.25S WCI  31
SARATOGA       CLOUDY    41  27  56 SW12      30.29S
LARAMIE        FAIR      36  24  62 E5        30.24S WCI  32
CHEYENNE       FAIR      40  27  59 S10       30.24S WCI  33
TORRINGTON     FAIR      33  30  88 E16G24    30.25R WCI  23
PINE BLUFFS    FAIR      34  32  93 S9        30.26S WCI  26

$$




USA.gov is the U.S. government's official web portal to all federal, state and local government web resources and services.